Regional Weather Roundup
Issued by NWS

Home | Current Version | Previous Version | Text Only | Print | Product List | Glossary On
Versions: 1 2 3 4 5 6 7 8 9 10 11 12 13 14 15 16 17 18 19 20 21 22 23 24 25 26 27 28 29 30 31 32 33 34 35 36 37 38 39 40 41 42 43 44 45 46 47 48 49 50
000
ASUS43 KMPX 270101
RWRMN
WEATHER ROUNDUP FOR MINNESOTA
NATIONAL WEATHER SERVICE TWIN CITIES/CHANHASSEN MN
800 PM CDT THU APR 26 2018


NOTE: "FAIR" INDICATES FEW OR NO CLOUDS BELOW 12,000 FEET WITH NO
SIGNIFICANT WEATHER AND/OR OBSTRUCTIONS TO VISIBILITY. N/A MEANS
CURRENT SKY AND/OR WEATHER CONDITIONS ARE NOT AVAILABLE.

MNZ060>063-068>070-270200-
   Twin Cities Metro

CITY           SKY/WX    TMP DP  RH WIND       PRES   REMARKS
TWIN CITIES    FAIR      58  28  32 N21       29.90R
ST PAUL        FAIR      57  29  34 N16G26    29.91R
CRYSTAL        FAIR      56  24  29 N14       29.90R
BLAINE         CLEAR     57  25  28 N16       29.91R
LAKEVILLE      FAIR      57  30  35 N10       29.89R
EDEN PRAIRIE   FAIR      58  31  35 N9        29.89R
SOUTH ST PAUL  FAIR      58  27  30 N14       29.90R
LAKE ELMO      FAIR      55  30  38 N12G23    29.91R
$$
MNZ001>005-007-008-013>017-022>024-027-028-270200-
   Northwest Minnesota

CITY           SKY/WX    TMP DP  RH WIND       PRES   REMARKS
BEMIDJI        FAIR      49  22  34 NW7       29.92F
HALLOCK        FAIR      59  25  27 S12       29.82F
ROSEAU         FAIR      54  36  50 S5        29.86F
WARROAD        FAIR      54  28  37 SW5       29.87F
THIEF RVR FALL FAIR      55  28  35 SW5       29.90F
CROOKSTON      FAIR      55  32  41 S6        29.89F
FOSSTON        FAIR      52  27  37 CALM      29.93F
DETROIT LAKES  FAIR      52  32  46 NW3       29.96F
MOORHEAD       FAIR      55  28  35 W5        29.95F
PARK RAPIDS    FAIR      51  24  34 NW8       29.93F
MAHNOMEN       FAIR      54  31  41 NW5       29.94F
$$
MNZ006-009>011-018-025>026-270200-
   North Central Minnesota

CITY           SKY/WX    TMP DP  RH WIND       PRES   REMARKS
BAUDETTE       FAIR      51  17  26 CALM      29.88F
FLAG ISLAND    MOCLDY    37  28  70 CALM      29.86F
INTL FALLS     FAIR      48  18  30 W3        29.89F
WASKISH        FAIR      45  25  45 W7        29.90F
BIG FORK       FAIR      50  19  29 N5        29.90S
LONGVILLE      FAIR      52  18  25 CALM      29.92F
GRAND RAPIDS   FAIR      50  23  34 NW9       29.92S
CRANE LAKE     FAIR      43  25  49 CALM      29.91F
ORR            FAIR      45  21  39 CALM      29.87F
COOK           FAIR      48  21  34 NE3       29.90S
WALKER         FAIR      50  19  29 NW9       29.92F
$$
MNZ012-019>021-037-270200-
   Northeast Minnesota

CITY           SKY/WX    TMP DP  RH WIND       PRES   REMARKS
DULUTH         FAIR      52  24  33 NW6       29.88S
ELY            FAIR      46  19  34 NW5       29.89S
HIBBING        FAIR      47  21  35 NW12      29.89S
EVELETH        FAIR      50  20  31 NW9       29.90S
DULUTH HARBOR  FAIR      41  36  81 CALM      29.89S
TWO HARBORS    FAIR      54  28  37 N3        29.87R
SILVER BAY     FAIR      52  23  32 CALM      29.86F
GRAND MARAIS     N/A     41  33  73 CALM      29.89R
G MARAIS ARPRT FAIR      39  23  52 NW5       29.88S
$$
MNZ029>031-032-039>041-046>048-054>057-064-270200-
   West Central Minnesota

CITY           SKY/WX    TMP DP  RH WIND       PRES   REMARKS
FERGUS FALLS   FAIR      54  30  40 N7        29.95F
WHEATON        CLEAR     55  32  41 N5        30.01S
MORRIS         CLEAR     52  36  54 N8        29.99S
ALEXANDRIA     FAIR      53  27  36 N9        29.99S
ELBOW LAKE     FAIR      53  33  47 N7        29.99F
WADENA         FAIR      50  28  43 NW10G16   29.95F
GLENWOOD       FAIR      50  28  43 NW8       29.99S
APPLETON       CLEAR     54  36  50 N7        30.00S
BENSON         CLEAR     52  30  43 N9        30.01S
ORTONVILLE     CLEAR     54  36  50 N6        30.00S
MADISON        CLEAR     55  37  50 N8        30.01S
WILLMAR        FAIR      50  30  46 NW9       30.01R
$$
MNZ033>034-036-042>043-049>051-058-059-270200-
   Central Minnesota

CITY           SKY/WX    TMP DP  RH WIND       PRES   REMARKS
ST CLOUD       FAIR      55  24  30 NW10      29.93R
SAUK CENTRE    FAIR      51  27  38 NW15      29.98R
PAYNESVILLE    FAIR      52  30  43 NW10G17   29.97S
AITKIN         FAIR      50  19  29 NW7       29.91S
PINE RIVER     FAIR      50  23  34 NW6       29.96S
BRAINERD       FAIR      53  20  27 N10       29.93S
STAPLES        FAIR      50  19  29 NW9       29.95S
LONG PRAIRIE   FAIR      50  27  40 W12       29.97S
LITTLE FALLS   FAIR      54  12  19 NW9       29.94S
LITCHFIELD     FAIR      54  30  40 NW10      29.96S
BUFFALO        FAIR      55  27  33 W7        29.93S
MAPLE LAKE     FAIR      54  31  41 W10       29.93S
HUTCHINSON     FAIR      53  32  46 NW13      29.97R
$$
MNZ037-044-045-052-053-270200-
   East Central Minnesota

CITY           SKY/WX    TMP DP  RH WIND       PRES   REMARKS
PRINCETON      FAIR      54  25  32 N6        29.92S
MORA           FAIR      50  25  37 NW13      29.93R
CAMBRIDGE      FAIR      55  34  44 NW5       29.91F
RUSH CITY      FAIR      53  28  38 NW10      29.90S
MOOSE LAKE     FAIR      54  27  35 N7        29.88S
HINCKLEY       FAIR      54  28  37 NW7       29.90R
CLOQUET        FAIR      54  12  19 NW12      29.89R
MCGREGOR       FAIR      52  23  32 NW8       29.91S
$$
MNZ071>073-080-081-089-090-097-098-270200-
   Southwest Minnesota

CITY           SKY/WX    TMP DP  RH WIND       PRES   REMARKS
MONTEVIDEO     CLEAR     54  36  50 NE12      30.00S
GRANITE FALLS  CLEAR     54  36  52 NW10      30.02S
CANBY          CLEAR     55  36  48 N5        30.02S
MARSHALL       CLEAR     52  38  58 N9        30.01S
REDWOOD FALLS  CLEAR     53  28  38 NW15      29.98S
OLIVIA         CLEAR     50  32  50 NW12      29.98R
PIPESTONE      CLEAR    N/A N/A N/A N9        30.02F
WINDOM         CLEAR     50  28  43 NW15      30.00S
WORTHINGTON    CLEAR     50  37  61 N13       30.02S
JACKSON        CLEAR     50  32  50 NW21G28   30.00S
TRACY          CLEAR     52  38  58 N8        30.01R
SLAYTON        CLEAR     52  37  56 N10       30.02S
$$
MNZ065>067-074>077-082>085-091>093-270200-
   South Central Minnesota

CITY           SKY/WX    TMP DP  RH WIND       PRES   REMARKS
MANKATO        FAIR      53  30  41 NW14      29.94R
NEW ULM        CLEAR     52  30  43 NW12      29.97R
ST JAMES       CLEAR     52  36  54 NW14      29.98S
FAIRMONT       CLEAR     51  33  50 NW22G28   29.97R
GLENCOE        FAIR      54  34  46 NW14G21   29.94R
FARIBAULT      FAIR      55  36  47 CALM      29.91R
OWATONNA       FAIR      55  36  47 NW17      29.90R
WASECA         FAIR      52  32  46 NW16      29.93S
ALBERT LEA     FAIR      55  27  33 NW13G21   29.91R
$$
MNZ078>079-086>088-094>096-270200-
   Southeast Minnesota

CITY           SKY/WX    TMP DP  RH WIND       PRES   REMARKS
ROCHESTER      FAIR      54  33  45 NW17      29.88R
RED WING       FAIR      59  23  25 N10G17    29.87R
STANTON        FAIR      56  32  39 N12G18    29.88R
DODGE CENTER   FAIR      55  30  38 NW12      29.88R
WINONA         FAIR      59  34  38 NW12G21   29.81R
AUSTIN         FAIR      55  32  41 NW14G20   29.88R
PRESTON        FAIR      56  31  39 NW15      29.86R
$$
ABBREVIATIONS USED IN REMARKS
   TC - TEMPERATURES IN CELSIUS
  WCI - WIND CHILL INDEX
   HX - HEAT INDEX
  VSB - VISIBILITY
$$



USA.gov is the U.S. government's official web portal to all federal, state and local government web resources and services.